Location: Cahas Mountain Overlook
(37.0833°N, 80.1000°W)
Time: 18:52:53
(UTC-04:00)

Explorer 7 - Pass Details

Date: 17 February 2026
Orbit: 430 x 541 km, 50.2° (Epoch: 13 March)

Event Time Altitude Azimuth Distance (km) Brightness Sun altitude
Rises 14:54:06 0° 230° (SW) 2,395 11.2 31.2°
Reaches altitude 10° 14:56:10 10° 230° (SW) 1,540 10.7 30.9°
Maximum altitude 14:59:38 88° 143° (SE) 450 6.9 30.4°
Drops below altitude 10° 15:03:14 10° 52° (NE) 1,599 8.7 29.9°
Sets 15:05:26 0° 52° (NE) 2,497 9.6 29.6°
